FW5633 Weather Reports


Display with metric or nautical units.
time (UTC)temp
F
wind
direction
speed
MPH
gust
MPH
rain 1hr
in
rain 24hr
in
rain mn
in
humidity
%
barometer
mb
20260503213522 57 246 9.0 21.0 0.00 0.00 0.00 44 1012.8
20260503213023 57 219 15.0 22.0 0.00 0.00 0.00 43 1012.8
20260503212522 58 249 6.0 16.0 0.00 0.00 0.00 43 1012.7
20260503212021 58 229 10.0 16.0 0.00 0.00 0.00 44 1012.7
20260503211522 57 234 8.0 18.0 0.00 0.00 0.00 44 1012.7
20260503211023 58 225 11.0 18.0 0.00 0.00 0.00 44 1012.8
20260503210520 58 219 10.0 15.0 0.00 0.00 0.00 44 1012.8
20260503210020 59 229 7.0 15.0 0.00 0.00 0.00 42 1012.7
20260503205520 59 215 6.0 15.0 0.00 0.00 0.00 45 1012.8
20260503205020 59 302 7.0 15.0 0.00 0.00 0.00 44 1012.8
20260503204523 58 346 6.0 15.0 0.00 0.00 0.00 44 1012.8
20260503204018 58 249 6.0 26.0 0.00 0.00 0.00 44 1013.0
20260503203518 58 208 13.0 26.0 0.00 0.00 0.00 42 1012.8
20260503203017 58 249 10.0 19.0 0.00 0.00 0.00 43 1013.0
20260503202516 59 239 10.0 22.0 0.00 0.00 0.00 43 1013.1
20260503202016 59 244 13.0 21.0 0.00 0.00 0.00 42 1013.2
20260503201515 58 236 6.0 15.0 0.00 0.00 0.00 45 1013.2
20260503201015 58 241 7.0 14.0 0.00 0.00 0.00 44 1013.3
20260503200516 58 284 10.0 14.0 0.00 0.00 0.00 45 1013.6
20260503200013 58 236 8.0 19.0 0.00 0.00 0.00 44 1013.6
20260503195512 58 200 10.0 22.0 0.00 0.00 0.00 43 1013.6
20260503195015 59 256 7.0 20.0 0.00 0.00 0.00 48 1013.6
20260503194510 57 226 10.0 20.0 0.00 0.00 0.00 46 1013.7
20260503194010 57 233 13.0 20.0 0.00 0.00 0.00 44 1013.7
20260503193509 58 219 14.0 24.0 0.00 0.00 0.00 43 1013.9
20260503193008 58 222 14.0 24.0 0.00 0.00 0.00 46 1013.8
20260503192506 58 222 8.0 18.0 0.00 0.00 0.00 49 1014.0
20260503192009 57 254 8.0 17.0 0.00 0.00 0.00 45 1014.0
20260503191505 57 238 7.0 14.0 0.00 0.00 0.00 45 1014.0
20260503191005 57 225 7.0 14.0 0.00 0.00 0.00 47 1014.2
20260503190504 57 202 8.0 17.0 0.00 0.00 0.00 46 1014.2
20260503190005 57 227 11.0 17.0 0.00 0.00 0.00 44 1014.3
20260503185503 58 215 10.0 17.0 0.00 0.00 0.00 46 1014.3
20260503185002 57 238 8.0 16.0 0.00 0.00 0.00 45 1014.4
20260503184601 57 231 8.0 16.0 0.00 0.00 0.00 48 1014.3
20260503184100 56 210 8.0 16.0 0.00 0.00 0.00 47 1014.6
20260503183559 56 220 8.0 18.0 0.00 0.00 0.00 47 1014.5
20260503183100 57 208 9.0 17.0 0.00 0.00 0.00 47 1014.5
20260503182558 56 215 6.0 17.0 0.00 0.00 0.00 46 1014.6
20260503182057 56 269 9.0 17.0 0.00 0.00 0.00 47 1014.9
20260503181555 56 302 10.0 20.0 0.00 0.00 0.00 46 1014.9
20260503181054 55 207 11.0 20.0 0.00 0.00 0.00 49 1014.9
20260503180554 55 219 9.0 17.0 0.00 0.00 0.00 49 1015.0
20260503180100 54 229 11.0 15.0 0.00 0.00 0.00 47 1015.1
20260503175553 54 260 6.0 17.0 0.00 0.00 0.00 47 1015.2
20260503175052 55 247 6.0 18.0 0.00 0.00 0.00 48 1015.3
20260503174558 55 204 10.0 26.0 0.00 0.00 0.00 49 1015.3
20260503174052 55 257 13.0 26.0 0.00 0.00 0.00 46 1015.3
20260503173552 55 237 5.0 21.0 0.00 0.00 0.00 48 1015.2
20260503173051 55 264 7.0 23.0 0.00 0.00 0.00 49 1015.3
20260503172548 55 193 13.0 23.0 0.00 0.00 0.00 48 1015.3
20260503172047 54 284 7.0 17.0 0.00 0.00 0.00 48 1015.5
20260503171550 54 234 9.0 18.0 0.00 0.00 0.00 48 1015.6
20260503171045 54 286 13.0 18.0 0.00 0.00 0.00 48 1015.6
20260503170544 54 217 7.0 16.0 0.00 0.00 0.00 49 1015.7
20260503150528 49 226 11.0 17.0 0.00 0.01 0.00 52 1017.0
20260503131003 42 247 4.0 12.0 0.00 0.01 0.00 71 1017.5
20260503130502 42 317 5.0 12.0 0.00 0.01 0.00 72 1017.6
20260503110540 32 360 0.0 0.0 0.00 0.02 0.00 90 1017.1
20260503081531 31 360 0.0 0.0 0.00 0.02 0.00 89 1016.8
20260503081032 31 360 0.0 2.0 0.00 0.02 0.00 89 1016.8
20260503080530 31 360 1.0 3.0 0.00 0.02 0.00 90 1016.9
20260503072526 31 360 1.0 3.0 0.00 0.02 0.00 89 1016.9
20260503072025 32 360 1.0 3.0 0.00 0.02 0.00 88 1016.8
20260503071524 32 360 1.0 3.0 0.00 0.02 0.00 89 1016.8
20260503071025 32 360 1.0 3.0 0.00 0.02 0.00 89 1016.8
20260503070527 32 360 1.0 3.0 0.00 0.02 0.00 89 1016.8
20260503055014 33 360 0.0 2.0 0.00 0.02 0.00 85 1017.2
20260503054514 33 360 1.0 2.0 0.00 0.02 0.00 84 1017.2
20260503054015 33 360 1.0 2.0 0.00 0.02 0.00 84 1017.3
20260503053513 33 360 0.0 3.0 0.00 0.02 0.00 85 1017.4
20260503053012 33 360 1.0 3.0 0.00 0.02 0.00 85 1017.4
20260503052512 33 360 1.0 3.0 0.00 0.02 0.00 85 1017.4
20260503052015 33 360 1.0 3.0 0.00 0.02 0.00 84 1017.3
20260503051510 33 360 1.0 3.0 0.00 0.02 0.00 84 1017.4
20260503051009 34 360 0.0 2.0 0.00 0.02 0.00 83 1017.4
20260503050507 34 360 1.0 2.0 0.00 0.02 0.00 83 1017.4
20260503050020 34 360 1.0 2.0 0.00 0.02 0.00 83 1017.5
20260503045509 34 360 1.0 3.0 0.00 0.02 0.00 83 1017.5
20260503045009 34 360 0.0 3.0 0.00 0.02 0.00 84 1017.6
20260503044506 34 360 1.0 2.0 0.00 0.02 0.00 84 1017.6
20260503044004 34 360 0.0 2.0 0.00 0.02 0.00 83 1017.6
20260503043504 34 360 1.0 2.0 0.00 0.02 0.00 83 1017.6
20260503043007 34 360 0.0 2.0 0.00 0.02 0.00 83 1017.6
20260503042503 34 360 1.0 2.0 0.00 0.02 0.00 84 1017.7
20260503042003 34 360 1.0 2.0 0.00 0.02 0.00 83 1017.7
20260503041502 34 360 1.0 2.0 0.00 0.02 0.00 83 1017.6
20260503041002 34 360 1.0 2.0 0.00 0.02 0.00 83 1017.6
20260503040600 34 360 1.0 2.0 0.00 0.02 0.00 83 1017.6
20260503040121 34 360 1.0 2.0 0.00 0.02 0.02 83 1017.6
20260503035600 34 360 1.0 3.0 0.00 0.02 0.02 82 1017.5
20260503035100 34 360 1.0 2.0 0.00 0.02 0.02 82 1017.5
20260503034600 34 360 1.0 3.0 0.00 0.02 0.02 82 1017.5
20260503034100 34 360 1.0 3.0 0.00 0.02 0.02 82 1017.7
20260503033559 34 360 1.0 2.0 0.00 0.02 0.02 81 1017.7
20260503033058 35 360 1.0 3.0 0.00 0.02 0.02 81 1017.7
20260503032558 35 360 1.0 3.0 0.00 0.02 0.02 81 1017.7
20260503032058 35 360 1.0 2.0 0.00 0.02 0.02 81 1017.7
20260503031606 35 360 1.0 3.0 0.00 0.02 0.02 80 1017.8
20260503031059 35 360 1.0 3.0 0.00 0.02 0.02 80 1017.7
20260503030558 36 360 1.0 3.0 0.00 0.02 0.02 79 1017.8
20260503030058 36 360 1.0 2.0 0.00 0.02 0.02 79 1017.9
20260503025557 36 360 1.0 2.0 0.00 0.02 0.02 79 1017.8
20260503025057 36 360 0.0 2.0 0.00 0.02 0.02 78 1017.9
20260503024557 37 360 0.0 1.0 0.00 0.02 0.02 78 1017.9
20260503024100 37 360 0.0 1.0 0.00 0.02 0.02 78 1018.0
20260503023559 37 360 0.0 0.0 0.00 0.02 0.02 79 1018.1
20260503023057 37 360 0.0 0.0 0.00 0.02 0.02 79 1018.1
20260503022556 37 360 0.0 0.0 0.00 0.02 0.02 78 1018.1
20260503022059 37 360 0.0 1.0 0.00 0.02 0.02 78 1018.1
20260503021556 37 360 0.0 1.0 0.00 0.02 0.02 78 1018.1
20260503021056 37 360 0.0 0.0 0.00 0.02 0.02 78 1018.0
20260503020556 37 360 0.0 1.0 0.00 0.02 0.02 78 1018.0
20260503020056 37 360 0.0 1.0 0.00 0.02 0.02 77 1018.0
20260503015655 38 360 0.0 1.0 0.00 0.02 0.02 77 1018.0
20260503015055 38 360 0.0 0.0 0.00 0.02 0.02 77 1018.1
20260503014609 38 360 0.0 1.0 0.00 0.02 0.02 77 1018.0
20260503014055 38 360 0.0 1.0 0.00 0.02 0.02 76 1018.0
20260503013555 38 360 0.0 1.0 0.00 0.02 0.02 75 1018.0
20260503013054 38 360 0.0 1.0 0.00 0.02 0.02 74 1017.9
20260503012555 38 360 0.0 1.0 0.00 0.02 0.02 73 1017.9
20260503012056 38 360 0.0 1.0 0.00 0.02 0.02 72 1018.2
20260503011558 38 360 0.0 2.0 0.00 0.02 0.02 72 1017.9
20260503011054 38 360 0.0 2.0 0.00 0.02 0.02 72 1017.9
20260503010554 38 360 0.0 2.0 0.00 0.02 0.02 71 1017.9
20260503010054 38 360 0.0 3.0 0.00 0.02 0.02 71 1017.8
20260503005555 39 360 0.0 3.0 0.00 0.02 0.02 71 1017.9
20260503005055 39 360 0.0 2.0 0.00 0.02 0.02 70 1017.8
20260503004554 39 360 0.0 3.0 0.00 0.02 0.02 70 1017.8
20260503004057 39 360 1.0 3.0 0.00 0.02 0.02 69 1017.8
20260503003554 39 360 0.0 3.0 0.00 0.02 0.02 69 1017.7
20260503003052 39 360 1.0 3.0 0.00 0.02 0.02 69 1017.7
20260503002555 39 360 1.0 4.0 0.00 0.02 0.02 69 1017.7
20260503002052 39 360 0.0 4.0 0.00 0.02 0.02 68 1017.6
20260503001604 39 360 2.0 5.0 0.00 0.02 0.02 68 1017.6
20260503001052 39 360 3.0 5.0 0.00 0.02 0.02 68 1017.7
20260503000555 39 360 2.0 5.0 0.00 0.02 0.02 67 1017.6
20260503000052 40 360 0.0 5.0 0.00 0.03 0.02 67 1017.6
20260502235552 40 360 1.0 6.0 0.00 0.03 0.02 66 1017.6
20260502235052 40 360 2.0 9.0 0.00 0.03 0.02 66 1017.5
20260502234553 40 360 2.0 9.0 0.00 0.03 0.02 66 1017.6
20260502234052 40 360 3.0 5.0 0.00 0.03 0.02 66 1017.5
20260502233552 40 360 1.0 4.0 0.00 0.03 0.02 66 1017.5
20260502233053 40 360 1.0 6.0 0.00 0.03 0.02 66 1017.6
20260502232554 40 360 1.0 11.0 0.00 0.03 0.02 65 1017.7
20260502232050 40 360 3.0 11.0 0.00 0.03 0.02 65 1017.6
20260502231550 40 360 4.0 10.0 0.00 0.03 0.02 65 1017.6
20260502231050 40 360 3.0 6.0 0.00 0.03 0.02 64 1017.4
20260502230550 40 360 2.0 10.0 0.00 0.03 0.02 65 1017.5
20260502230051 40 360 2.0 10.0 0.00 0.04 0.02 64 1017.5
20260502225550 41 360 2.0 8.0 0.00 0.04 0.02 65 1017.5
20260502225050 41 360 3.0 10.0 0.00 0.04 0.02 64 1017.5
20260502224550 41 360 4.0 10.0 0.00 0.04 0.02 63 1017.4
20260502224051 41 360 3.0 8.0 0.00 0.04 0.02 64 1017.3
20260502223550 41 360 3.0 8.0 0.00 0.04 0.02 64 1017.4
20260502223050 41 360 1.0 9.0 0.00 0.04 0.02 63 1017.5
20260502222549 41 360 4.0 11.0 0.00 0.04 0.02 61 1017.3
20260502222048 41 360 3.0 11.0 0.00 0.04 0.02 62 1017.4
20260502221550 41 360 6.0 11.0 0.00 0.04 0.02 62 1017.3
20260502221048 41 360 5.0 11.0 0.00 0.04 0.02 63 1017.3
20260502220548 41 360 2.0 11.0 0.00 0.04 0.02 63 1017.3
20260502220048 41 360 3.0 14.0 0.00 0.05 0.02 62 1017.4
20260502215548 42 360 4.0 14.0 0.00 0.05 0.02 62 1017.4
20260502215048 42 360 3.0 9.0 0.00 0.05 0.02 62 1017.2
20260502214548 42 360 3.0 10.0 0.00 0.05 0.02 61 1017.2
20260502214047 42 360 4.0 10.0 0.00 0.05 0.02 59 1017.1